User: anonymous   Login
Location: Unspecified
(0.0000°N, 0.0000°E)
Time: 00:46:55
(UTC+00:00)
Language:

KANOPUS-V-IK - Orbit

View from above orbital plane
View from above orbital plane
View from above satellite
View from above satellite

Ground track
Ground track

The orbit data is extracted from the following two-line orbital elements,

1 42825U 17042A   17295.83222687  .00000429  00000-0  23407-4 0  9992
2 42825  97.4298 203.8044 0002845  87.3833 272.7727 15.19471161 15279
Epoch (UTC): 22 October 2017 19:58:24
Eccentricity: 0.0002845
inclination: 97.4298°
perigee height: 505 km
apogee height: 509 km
right ascension of ascending node: 203.8044°
argument of perigee: 87.3833°
revolutions per day: 15.19471161
mean anomaly at epoch: 272.7727°
orbit number at epoch: 1527

The dashed part of the orbit path shows where the satellite is in the earth's shadow,  

DLR